EHI
0 0 0 0 0 0 0 0 0 0 0 0 0 0 0 0 0 0 0 0 0 0 0 0 0 0 0 0 0 0 0 0 0 0 0 0 0 0 0 0 0 0 0 0
0 0 0 0 0 0 0 0 0 0 0 0 0 0 0 0 0 0 0 0 0 0 0 0 0 0 0 0 0 0 0 0 0 0 0 0 0 0 0 0 0 0 0 0
0 0 0 0 0 0 0 0 0 0 0 0 0 0 0 0 0 0 0 0 0 0 0 0 0 0 0 0 0 0 0 0 0 0 0 0 0 0 0 0 0 0 0 0
0 0 0 0 0 0 0 0 0 0 0 0 0 0 0 0 0 0 0 0 0 0 0 0 0 0 0 0 0 0 0 0 0 0 0 0 0 0 0 0 0 0 0 0
0 0 0 0 0 0 0 0 0 0 0 0 0 0 0 0 0 0 0 0 0 0 0 0 0 0 0 0 0 0 0 0 0 0 0 0 0 0 0 0 0 0 0 0
0 0 0 0 0 0 0 0 0 0 0 0 0 0 0 0 0 0 0 0 0 0 0 0 0 0 0 0 0 0 0 0 0 0 0 0 0 0 0 0 0 0 0 0
0 0 0 0 0 0 0 0 0 0 0 0 0 0 0 0 0 0 0 0 0 0 0 0 0 0 0 0 0 0 0 0 0 0 0 0 0 0 0 0 0 0 0 0
0 0 0 0 0 0 0 0 0 0 0 0 0 0 0 0 0 0 0 0 0 0 0 0 0 0 0 0 0 0 0 0 0 0 0 0 0 0 0 0 0 0 0 0
0 0 0 0 0 0 0 0 0 0 0 0 0 0 0 0 0 0 0 0 0 0 0 0 0 0 0 0 0 0 0 0 0 0 0 0 0 0 0 0 0 0 0 0
0 0 0 0 0 0 0 0 0 0 0 0 0 0 0 0 0 0 0 0 0 0 0 0 0 0 0 0 0 0 0 0 0 0 0 0 0 0 0 0 0 0 0 0
0 0 0 0 0 0 0 0 0 0 0 0 0 0 0 0 0 0 0 0 0 0 0 0 0 0 0 0 0 0 0 0 0 0 0 0 0 0 0 0 0 0 0 0
0 0 0 0 0 0 0 0 0 0 0 0 0 0 0 0 0 0 0 0 0 0 0 0 0 0 0 0 0 0 0 0 0 0 0 0 0 0 0 0 0 0 0 0
0 0 0 0 0 0 0 0 0 0 0 0 0 0 0 0 0 0 0 0 0 0 0 0 0 0 0 0 0 0 0 0 0 0 0 0 0 0 0 0 0 0 0 0
0 0 0 0 0 0 0 0 0 0 0 0 0 0 0 0 0 0 0 0 0 0 0 0 0 0 0 0 0 0 0 0 0 0 0 0 0 0 0 0 0 0 0 0
0 0 0 0 0 0 0 0 0 0 0 0 0 0 0 0 0 0 0 0 0 0 0 0 0 0 0 0 0 0 0 0 0 0 0 0 0 0 0 0 0 0 0 0
0 0 0 0 0 0 0 0 0 0 0 0 0 0 0 0 0 0 0 0 0 0 0 0 0 0 0 0 0 0 0 0 0 0 0 0 0 0 0 0 0 0 0 0
0 0 0 0 0 0 0 0 0 0 0 0 0 0 0 0 0 0 0 0 0 0 0 0 0 0 0 0 0 0 0 0 0 0 0 0 0 0 0 0 0 0 0 0
0 0 0 0 0 0 0 0 0 0 0 0 0 0 0 0 0 0 0 0 0 0 0 0 0 0 0 0 0 0 0 0 0 0 0 0 0 0 0 0 0 0 0 0
0 0 0 0 0 0 0 0 0 0 0 0 0 0 0 0 0 0 0 0 0 0 0 0 0 0 0 0 0 0 0 0 0 0 0 0 0 0 0 0 0 0 0 0
0 0 0 0 0 0 0 0 0 0 0 0 0 0 0 0 0 0 0 0 0 0 0 0 0 0 0 0 0 0 0 0 0 0 0 0 0 0 0 0 0 0 0 0
0 0 0 0 0 0 0 0 0 0 0 0 0 0 0 0 0 0 0 0 0 0 0 0 0 0 0 0 0 0 0 0 0 0 0 0 0 0 0 0 0 0 0 0
0 0 0 0 0 0 0 0 0 0 0 0 0 0 0 0 0 0 0 0 0 0 0 0 0 0 0 0 0 0 0 0 0 0 0 0 0 0 0 0 0 0 0 0
0 0 0 0 0 0 0 0 0 0 0 0 0 0 0 0 0 0 0 0 0 0 0 0 0 0 0 0 0 0 0 0 0 0 0 0 0 0 0 0 0 0 0 0
0 0 0 0 0 0 0 0 0 0 0 0 0 0 0 0 0 0 0 0 0 0 0 0 0 0 0 0 0 0 0 0 0 0 0 0 0 0 0 0 0 0 0 0
0 0 0 0 0 0 0 0 0 0 0 0 0 0 0 0 0 0 0 0 0 0 0 0 0 0 0 0 0 0 0 0 0 0 0 0 0 0 0 0 0 0 0 0
0 0 0 0 0 0 0 0 0 0 0 0 0 0 0 0 0 0 0 0 0 0 0 0 0 0 0 0 0 0 0 0 0 0 0 0 0 0 0 0 0 0 0 0
0 0 0 0 0 0 0 0 0 0 0 0 0 0 0 0 0 0 0 0 0 0 0 0 0 0 0 0 0 0 0 0 0 0 0 0 0 0 0 0 0 0 0 0
Wind_Speed
5 3 2 3 4 6 8 9 10 13 14 11 11 13 15 16 16 16 16 17 17 16 16 16 16 16 16 16 16 16 16 16 16 16 15 14 14 14 13 13 14 14 14 14
3 2 1 0 2 5 8 10 12 12 10 10 12 14 15 16 16 16 17 18 18 18 18 17 17 16 16 16 16 16 16 17 16 15 15 15 14 14 14 13 13 13 14 14
0 2 6 4 0 6 10 12 12 11 12 14 16 16 17 16 14 16 18 18 18 18 17 17 17 16 16 16 16 16 16 16 16 15 15 14 14 14 13 13 12 12 13 13
3 2 4 6 3 6 11 11 7 7 11 14 15 16 15 11 14 17 18 18 17 17 17 17 17 16 16 16 16 16 16 15 15 14 14 13 13 12 12 11 11 10 11 12
5 5 1 5 0 7 12 11 3 8 13 15 15 16 9 12 15 16 17 17 16 16 17 17 17 16 16 16 16 16 15 15 15 14 13 13 12 11 10 10 9 9 10 11
4 6 3 5 5 6 9 4 5 10 14 15 16 14 11 16 17 16 16 15 15 16 16 16 16 16 16 16 16 16 15 15 15 14 13 13 12 11 9 9 9 8 9 9
5 4 1 6 4 7 8 9 10 11 12 13 13 13 15 17 16 16 16 16 16 15 15 15 15 15 15 16 15 15 15 15 14 13 12 11 10 9 9 8 8 7 8 8
3 4 4 5 5 6 8 7 9 10 11 12 13 14 15 15 16 16 16 16 16 14 15 14 14 14 15 15 15 15 14 14 13 12 11 9 8 8 8 7 7 6 6 7
3 4 4 2 4 4 5 7 8 9 11 11 13 14 15 15 15 15 15 15 14 15 15 14 14 14 15 15 15 15 14 13 12 12 9 9 8 7 6 5 5 4 4 4
3 2 1 1 1 2 4 6 7 8 10 11 13 14 14 14 14 14 14 14 14 15 15 15 15 15 14 14 14 14 13 12 11 10 9 8 6 5 4 4 4 3 3 3
5 2 2 2 2 3 3 4 6 7 9 10 12 13 13 13 13 13 13 13 13 13 14 15 15 15 14 13 13 13 13 11 10 9 8 7 5 4 4 3 3 4 3 2
2 1 3 3 1 1 3 4 6 7 9 10 10 12 12 12 12 12 13 13 13 14 14 15 15 15 14 12 12 12 10 10 8 7 6 5 5 3 2 3 3 2 2 3
0 2 1 2 1 1 3 4 5 6 8 10 10 10 11 12 12 12 13 13 14 14 14 14 14 14 13 13 12 11 10 9 7 7 6 5 5 4 2 2 3 3 3 2
4 3 3 3 2 2 2 3 5 6 7 8 9 10 10 11 12 13 13 13 13 14 13 13 14 14 14 13 12 11 10 8 7 6 5 5 5 4 3 2 1 2 4 3
7 6 3 2 3 2 2 3 5 6 7 8 8 9 10 11 12 12 12 12 13 13 13 13 14 14 14 12 11 11 9 7 7 6 5 4 4 4 3 3 3 3 3 4
8 6 5 4 4 3 3 3 5 6 7 8 9 9 10 11 11 11 11 12 12 13 13 13 13 14 13 12 11 8 6 8 9 6 5 4 4 4 4 3 3 3 2 2
9 8 8 7 5 4 3 3 4 6 7 8 9 9 10 11 11 11 12 12 11 11 11 12 13 14 13 11 10 7 7 6 6 5 5 5 4 4 4 4 3 3 3 4
8 6 6 5 5 4 3 3 3 4 5 6 7 8 9 10 11 12 12 12 11 11 12 13 14 14 12 11 9 7 6 6 6 6 5 5 5 4 4 4 4 4 3 3
8 7 6 5 4 4 3 2 2 3 4 5 7 8 8 9 9 10 11 11 11 12 13 14 15 12 11 12 11 6 6 6 5 5 5 4 4 5 5 5 4 4 3 3
9 8 8 7 6 5 4 3 2 3 3 4 6 7 8 9 9 10 10 8 7 9 12 13 13 11 11 11 12 6 6 6 6 5 5 5 5 5 5 5 5 5 4 4
10 10 9 8 7 6 5 4 3 3 3 4 5 6 7 8 8 8 8 8 9 11 12 10 8 9 10 11 9 6 6 5 5 5 5 5 6 6 6 6 5 5 5 5
10 10 10 9 8 7 6 5 4 4 3 4 4 5 6 7 7 7 6 6 8 11 10 8 9 11 15 14 6 6 6 6 5 5 5 5 6 6 6 6 6 6 6 5
9 10 10 10 9 7 7 6 5 4 4 4 4 4 6 6 6 6 6 6 8 11 9 7 11 16 18 8 6 6 6 6 5 5 4 4 5 5 5 6 6 6 6 6
8 10 10 9 9 8 8 7 6 4 4 4 3 2 4 4 4 3 5 4 5 9 7 6 10 14 12 5 6 6 6 6 6 5 5 5 5 5 5 6 6 6 6 7
8 9 10 11 10 9 9 8 7 7 6 4 3 2 2 2 3 4 5 6 6 7 6 4 5 10 7 6 6 6 6 6 6 6 5 5 5 5 6 6 6 5 6 6
8 8 9 10 9 7 7 7 6 5 5 4 3 2 1 1 2 3 3 4 6 5 6 5 6 6 6 6 6 6 6 5 5 5 6 5 6 6 6 6 7 6 6 6
8 8 7 9 9 9 7 7 6 6 5 4 3 2 1 1 1 2 3 4 4 4 5 5 5 6 6 6 6 6 6 6 6 6 5 5 5 6 6 7 6 5 5 6
Wind_Direction
66 79 75 76 48 20 14 355 331 330 325 345 350 333 330 329 329 329 331 330 328 326 325 322 321 319 317 315 313 310 306 302 298 295 292 287 282 278 272 265 261 256 251 247
137 126 111 177 10 350 351 343 330 322 332 1 335 327 329 329 329 330 330 329 328 326 325 323 322 319 318 314 312 310 306 303 300 297 294 289 283 278 273 267 262 260 253 249
358 164 253 217 69 338 339 336 328 325 339 337 328 331 329 326 330 332 329 328 327 326 325 323 321 321 318 317 315 312 308 306 304 300 296 291 288 285 279 273 267 260 255 249
327 244 285 74 54 335 325 323 327 322 329 331 329 327 316 330 340 331 328 326 327 325 323 321 320 320 320 317 315 313 311 310 308 305 300 296 292 287 284 276 268 261 256 250
307 298 300 131 35 339 325 316 2 331 328 329 332 316 323 8 343 329 327 326 324 322 322 320 320 322 321 317 315 314 313 313 311 308 304 299 293 286 283 278 269 260 256 252
308 309 334 69 45 343 296 291 41 335 330 332 330 323 341 347 334 330 329 326 324 323 320 320 324 324 319 317 317 318 318 316 311 308 304 298 293 288 282 277 273 267 259 251
313 298 35 63 18 304 308 1 350 333 331 329 331 322 322 328 329 329 328 326 325 324 323 324 324 323 318 318 319 319 317 314 310 308 305 299 295 290 285 279 273 265 263 255
293 304 43 53 327 333 342 336 328 329 329 327 321 320 324 328 329 329 329 329 329 326 324 326 325 323 320 319 319 317 314 313 312 311 309 308 304 296 289 283 276 263 255 254
333 0 52 3 329 352 332 320 328 328 329 326 322 326 328 329 330 330 330 330 328 326 325 326 327 326 322 320 320 318 316 316 315 314 310 308 305 301 295 283 277 271 262 255
259 275 336 301 293 304 313 319 325 326 326 326 325 326 329 330 329 330 331 329 329 327 326 326 329 326 323 321 322 320 319 320 320 319 318 319 314 310 305 299 294 283 273 265
250 278 273 211 267 294 304 309 317 324 326 327 326 327 330 327 329 330 329 329 328 327 326 327 327 325 326 328 327 324 322 323 323 326 327 323 325 334 329 341 350 324 316 305
304 70 304 8 66 278 288 305 319 322 324 328 329 328 328 327 329 329 329 329 329 329 328 328 327 325 329 332 330 326 325 329 330 332 334 332 335 4 42 347 17 5 339 329
267 111 45 83 138 233 282 307 317 319 323 326 331 330 328 327 328 329 330 332 332 330 328 328 328 328 333 336 334 330 327 331 330 335 338 342 348 352 10 84 100 69 34 356
157 171 186 198 207 223 277 305 309 313 325 330 331 329 328 329 329 332 333 333 331 328 329 332 332 334 337 337 335 333 331 333 329 336 341 348 352 355 1 13 62 103 96 73
190 204 219 165 185 209 250 284 300 316 332 334 332 332 333 331 330 331 332 333 332 331 336 338 336 337 338 336 335 336 341 348 345 344 349 359 4 9 11 15 33 61 85 108
188 197 197 198 208 223 249 282 303 321 332 333 334 336 334 330 329 331 336 339 335 335 338 339 339 338 336 337 337 338 352 355 344 346 359 12 15 17 22 24 40 60 58 49
182 197 207 214 215 224 247 282 306 320 328 334 336 333 331 332 334 339 340 339 335 335 344 345 342 339 337 342 341 341 348 357 346 355 14 15 16 20 26 32 39 48 48 36
195 197 192 201 207 213 231 261 293 315 325 332 329 330 334 337 338 338 336 334 337 343 353 351 345 337 341 350 346 343 349 356 6 13 18 20 13 22 33 40 43 46 52 83
189 184 178 178 183 197 216 242 281 309 322 326 327 331 333 335 337 334 332 332 342 347 347 345 336 337 348 354 345 345 356 1 8 15 19 17 9 25 27 31 37 42 42 42
188 184 182 181 183 195 207 219 253 286 311 321 321 325 332 337 337 334 331 332 358 351 335 336 336 346 348 350 342 350 1 5 8 13 16 18 24 22 22 28 30 34 37 41
193 191 190 191 191 197 206 215 236 265 291 304 314 325 330 332 334 333 330 338 356 353 336 329 341 351 346 335 329 358 7 10 15 18 20 22 24 23 22 24 29 32 35 37
198 197 198 196 195 200 203 213 228 251 270 286 304 320 323 325 333 333 336 347 345 349 334 344 355 350 335 323 350 13 15 16 22 25 23 22 24 22 25 26 31 35 39 41
203 202 202 201 200 202 203 213 224 241 259 276 296 313 321 327 329 329 335 355 346 338 328 359 348 336 327 331 3 11 18 18 19 21 18 17 25 26 24 25 31 34 35 38
211 206 204 201 201 205 211 213 216 226 243 256 266 293 303 307 316 334 340 340 343 328 334 9 342 333 325 351 6 11 17 15 10 9 15 20 26 29 30 29 32 31 33 36
220 214 206 202 204 208 207 207 208 212 225 233 239 228 261 305 318 330 331 337 351 331 337 5 345 331 345 7 8 12 19 19 6 3 18 17 18 24 30 31 31 34 35 38
227 224 216 213 217 217 205 203 210 207 211 222 224 219 246 283 303 311 317 333 346 337 340 352 356 351 4 7 10 10 15 20 16 15 18 19 21 24 27 28 31 29 34 39
232 226 222 222 217 216 213 206 210 209 205 213 217 202 206 256 301 329 334 339 344 350 355 358 3 5 7 9 10 10 13 18 19 18 19 22 25 26 28 29 28 28 31 41